This is the latest recevied weather packets stored in our database for station/object KJ4EBE. If no packets are shown the sender has not sent any weather packets the latest 10 day(s).
| Time | Temp. | Humidity | Pressure | Rain* | Wind** | Luminosity | Snow |
|---|---|---|---|---|---|---|---|
| 1776906624 | 23.33° C | 86% | 1011.9 hPa | 0 mm | - | 2 W/m² | - |
| 1776906320 | 23.33° C | 86% | 1011.5 hPa | 0 mm | - | 4 W/m² | - |
| 1776906018 | 23.89° C | 85% | 1011.7 hPa | 0 mm | - | 6 W/m² | - |
| 1776905713 | 23.89° C | 85% | 1011.6 hPa | 0 mm | - | 8 W/m² | - |
| 1776905409 | 23.89° C | 84% | 1011.6 hPa | 0 mm | - | 11 W/m² | - |
| 1776905106 | 23.89° C | 84% | 1011.8 hPa | 0 mm | - | 12 W/m² | - |
| 1776904803 | 24.44° C | 83% | 1011.7 hPa | 0 mm | - | 15 W/m² | - |
| 1776904500 | 24.44° C | 81% | 1011.8 hPa | 0 mm | - | 20 W/m² | - |
| 1776904197 | 24.44° C | 80% | 1011.8 hPa | 0 mm | - | 21 W/m² | - |
| 1776903892 | 25° C | 79% | 1011.8 hPa | 0 mm | - | 25 W/m² | - |
| 1776903588 | 25° C | 78% | 1011.7 hPa | 0 mm | - | 31 W/m² | - |
| 1776903284 | 25.56° C | 77% | 1011.9 hPa | 0 mm | - | 33 W/m² | - |
| 1776902981 | 25.56° C | 77% | 1011.9 hPa | 0 mm | - | 40 W/m² | - |
| 1776902678 | 25.56° C | 76% | 1011.8 hPa | 0 mm | - | 46 W/m² | - |
| 1776902377 | 25.56° C | 76% | 1011.9 hPa | 0 mm | - | 51 W/m² | - |
| 1776902072 | 25.56° C | 76% | 1012.1 hPa | 0 mm | - | 53 W/m² | - |
| 1776901768 | 26.11° C | 75% | 1011.9 hPa | 0 mm | - | 59 W/m² | - |
| 1776901465 | 26.11° C | 74% | 1012 hPa | 0 mm | - | 64 W/m² | - |
| 1776901161 | 26.67° C | 73% | 1012 hPa | 0 mm | - | 71 W/m² | - |
| 1776900859 | 26.67° C | 73% | 1012.1 hPa | 0 mm | - | 76 W/m² | - |
| 1776900558 | 26.67° C | 72% | 1012 hPa | 0 mm | - | 110 W/m² | - |
| 1776900255 | 27.22° C | 72% | 1011.8 hPa | 0 mm | - | 112 W/m² | - |
| 1776899953 | 27.22° C | 73% | 1012 hPa | 0 mm | - | 127 W/m² | - |
| 1776899649 | 27.22° C | 71% | 1012.1 hPa | 0 mm | - | 114 W/m² | - |
| 1776899346 | 27.78° C | 71% | 1012 hPa | 0 mm | - | 119 W/m² | - |
* Rain latest hour (hover to see other rain measurements)
** Current wind speed in m/s (hover to see current wind gust speed)